[[{"header":{"parameterUnit":"m.s-1","parameterCategory":1,"la1":30.2991,"la2":30.254,"lo1":-89.0895,"lo2":-89.0444,"dy":0.0017,"dx":0.0017,"nx":28,"ny":28,"refTime":"2025-07-08T03:00:00:Z","depth":0,"parameterNumber":2,"parameterNumberName":"U-component_of_WINDS"},"data":[0,0,0,0,0,0,0,0,0,0,0,0,0,0,0,0,0,0,0,0,0,0,0,0,0,0,0,0,0,0,0,0,0,0,0,0,0,0,0,0,0,0,0,0,0,0,0,0,0,0,0,0,0,0,0,0,0,0,1.8321,1.8322,0,1.8419,1.8421,1.8422,1.8427,1.8426,1.8425,1.8424,1.8531,1.8535,1.8539,0,0,0,0,0,0,0,0,0,0,0,0,0,1.8143,1.8146,1.8321,1.8322,1.8323,1.8419,1.8421,1.8422,1.8428,1.8426,1.8425,1.8423,1.853,1.8534,1.8539,0,0,0,0,0,0,0,0,0,0,0,0,0,1.8229,1.8147,1.8321,1.8337,1.834,1.8419,1.8421,1.8422,1.8428,1.8426,1.8424,1.8423,1.8528,1.8534,1.854,1.861,0,0,1.8558,1.856,0,0,0,0,0,0,0,0,1.8224,1.8235,1.8334,1.8336,1.8339,1.8409,1.8397,1.8486,1.8428,1.8395,1.8424,1.8422,1.8492,1.8501,1.8523,1.8615,1.862,1.8558,1.8562,1.8564,1.8566,0,0,0,0,0,0,0,1.8218,1.8231,1.836,1.8335,1.8339,1.8342,1.8352,1.8414,1.8452,1.8397,1.8398,1.8409,1.8493,1.8518,1.8526,1.8622,1.8558,1.8563,1.8567,1.8569,1.8777,1.8779,0,0,0,0,0,0,1.8208,1.8226,1.8357,1.8363,1.8276,1.8347,1.8358,1.8389,1.8451,1.8459,1.8411,1.8409,1.8509,1.8519,1.853,1.8617,1.8564,1.857,1.8573,1.8775,1.8777,1.878,0,0,0,0,0,0,1.8204,1.822,1.8353,1.8295,1.8312,1.8351,1.8386,1.8392,1.8416,1.8461,1.8469,1.8428,1.8508,1.8521,1.859,1.862,1.8572,1.8578,1.8773,1.8776,1.8778,1.8791,0,0,0,0,0,0,1.8199,1.8218,1.8244,1.8295,1.8315,1.841,1.8388,1.8395,1.8425,1.8424,1.848,1.8487,1.8507,1.8581,1.8596,1.8628,1.8582,1.877,1.8774,1.8777,1.8788,1.8794,1.8799,0,0,0,0,0,1.8193,1.8245,1.8245,1.8261,1.8348,1.8411,1.8423,1.8443,1.8427,1.8455,1.8484,1.8485,1.8615,1.8588,1.8605,1.8639,1.8768,1.8773,1.8777,1.8785,1.8793,1.8799,0,0,0,0,0,0,1.8198,1.8252,1.8253,1.8323,1.8362,1.8412,1.8447,1.845,1.8497,1.8494,1.8519,1.8532,1.8599,1.8626,1.8595,1.8711,1.869,1.8698,1.869,1.8698,1.8703,1.8695,1.8587,0,0,0,0,0,1.8207,1.8252,1.8298,1.8355,1.8375,1.8407,1.8436,1.8448,1.8491,1.8508,1.8542,1.8585,1.8636,1.8668,1.8717,1.8792,1.8804,1.8824,1.8829,1.8833,1.884,1.8882,1.8891,1.8794,1.8794,1.8794,0,0,1.8227,1.8262,1.8289,1.8357,1.8389,1.8437,1.8421,1.8473,1.8509,1.8516,1.8582,1.8609,1.8659,1.8731,1.8764,1.8755,1.8869,1.8839,1.8842,1.8847,1.8887,1.8896,1.8904,1.8797,1.8797,1.8796,0,0,1.8287,1.8318,1.8369,1.8401,1.8449,1.847,1.8482,1.8532,1.8549,1.8616,1.8622,1.8667,1.8753,1.8788,1.8817,1.889,1.8893,1.8906,1.8935,1.8975,1.8983,1.899,1.9016,1.9025,1.8912,1.8912,1.8912,0,1.8306,1.8376,1.8395,1.8446,1.8476,1.8483,1.8536,1.8567,1.8629,1.8651,1.8639,1.8747,1.8781,1.8861,1.8879,1.8902,1.8918,1.8899,1.898,1.8987,1.8994,1.9019,1.9029,1.8914,1.8913,1.8913,1.8913,0,1.8397,1.8446,1.8482,1.854,1.8574,1.8626,1.8654,1.8687,1.8696,1.872,1.8788,1.8828,1.8886,1.8906,1.8916,1.8988,1.898,1.8974,1.8954,1.9004,1.9028,1.9038,1.8915,1.8915,1.8914,1.8914,0,0,1.8464,1.853,1.8543,1.857,1.8623,1.8662,1.8715,1.8769,1.8797,1.884,1.8885,1.8958,1.8952,1.8985,1.9,1.9035,1.9091,1.9025,1.9026,1.9035,1.9172,1.9176,1.9187,1.9093,1.9095,1.9097,1.9168,0,1.8529,1.8621,1.8639,1.8719,1.8765,1.8773,1.8819,1.8858,1.8881,1.8925,1.8952,1.9002,1.8991,1.9011,1.9046,1.9076,1.9118,1.9072,1.9137,1.9139,1.9123,1.9199,1.9204,1.9269,1.9177,1.9179,1.918,0,1.8618,1.8661,1.8745,1.8792,1.8812,1.8853,1.8904,1.8945,1.899,1.9005,1.9041,1.9052,1.9109,1.9085,1.9164,1.9132,1.916,1.9179,1.9182,1.9189,1.9162,1.9208,1.929,1.9299,1.9195,1.9194,1.9193,0,1.8657,1.8737,1.8797,1.8819,1.8876,1.8905,1.893,1.8973,1.9004,1.9049,1.907,1.9122,1.9151,1.9192,1.9217,1.9198,1.9294,1.9273,1.9308,1.9308,1.9328,1.9326,1.9415,1.9347,1.9347,1.9346,1.9346,0,1.8729,1.878,1.8815,1.8852,1.891,1.8932,1.899,1.9015,1.9053,1.9096,1.9107,1.9148,1.9179,1.9225,1.9245,1.9307,1.932,1.9335,1.9339,1.9333,1.9331,1.9352,1.9348,1.9349,1.9349,1.9348,1.9348,0,1.8782,1.8808,1.8874,1.8922,1.8935,1.8976,1.9018,1.9055,1.9078,1.9133,1.9147,1.9185,1.9239,1.9268,1.9337,1.935,1.942,1.9423,1.9404,1.9406,1.944,1.9436,1.9545,1.956,1.9481,1.9482,1.9483,0,1.8825,1.8865,1.8916,1.8945,1.897,1.9017,1.9049,1.9072,1.9105,1.9159,1.919,1.9244,1.9289,1.9376,1.941,1.9463,1.9466,1.9501,1.9474,1.9467,1.9466,1.9463,1.9467,1.9505,1.9506,1.9507,1.9507,0,1.89,1.891,1.8954,1.9003,1.904,1.908,1.9119,1.9143,1.9174,1.921,1.9264,1.9299,1.9368,1.9422,1.9477,1.9506,1.9512,1.9515,1.9526,1.952,1.9507,1.9514,1.9416,1.9512,1.9512,1.9511,1.9511,1.9511,1.8949,1.8984,1.9026,1.9075,1.9107,1.9143,1.918,1.9208,1.9253,1.931,1.9322,1.938,1.9424,1.9498,1.9528,1.9575,1.9568,1.9584,1.9588,1.9591,1.9592,1.95,1.9585,1.9585,1.9585,1.9585,1.9585,0,1.9024,1.9051,1.9095,1.9149,1.9188,1.9189,1.9233,1.9266,1.9316,1.9356,1.9399,1.9462,1.9515,1.9553,1.9607,1.9637,1.9641,1.965,1.9648,1.9654,1.9595,1.958,1.9646,1.9646,1.9646,1.9646,1.9646,1.9646,1.9067,1.9126,1.9142,1.9217,1.9245,1.93,1.9325,1.9359,1.9391,1.946,1.9503,1.9527,1.9567,1.9624,1.9673,1.9683,1.9702,1.9711,1.9721,1.9665,1.9659,1.9652,1.9638,1.9715,1.9715,1.9776,1.9777,1.9777]},{"header":{"parameterUnit":"m.s-1","parameterCategory":1,"la1":30.2991,"la2":30.254,"lo1":-89.0895,"lo2":-89.0444,"dy":0.0017,"dx":0.0017,"nx":28,"ny":28,"refTime":"2025-07-08T03:00:00:Z","depth":0,"parameterNumber":3,"parameterNumberName":"V-component_of_WINDS"},"data":[0,0,0,0,0,0,0,0,0,0,0,0,0,0,0,0,0,0,0,0,0,0,0,0,0,0,0,0,0,0,0,0,0,0,0,0,0,0,0,0,0,0,0,0,0,0,0,0,0,0,0,0,0,0,0,0,0,0,2.9059,2.9058,0,2.9031,2.9031,2.903,2.9025,2.9025,2.9025,2.9025,2.8994,2.8993,2.8992,0,0,0,0,0,0,0,0,0,0,0,0,0,2.9102,2.9101,2.9059,2.9058,2.9058,2.9031,2.9031,2.903,2.9025,2.9025,2.9025,2.9025,2.8994,2.8993,2.8991,0,0,0,0,0,0,0,0,0,0,0,0,0,2.908,2.9101,2.9059,2.9052,2.9051,2.9031,2.9031,2.903,2.9024,2.9025,2.9025,2.9025,2.8994,2.8993,2.8991,2.8975,0,0,2.8987,2.8986,0,0,0,0,0,0,0,0,2.9081,2.9078,2.9053,2.9052,2.9051,2.9032,2.9034,2.9012,2.9024,2.9034,2.9025,2.9026,2.9006,2.9003,2.8997,2.8974,2.8972,2.8986,2.8985,2.8985,2.8984,0,0,0,0,0,0,0,2.9082,2.9079,2.9048,2.9053,2.9052,2.9049,2.9046,2.903,2.9019,2.9034,2.9033,2.903,2.9005,2.8999,2.8997,2.8972,2.8986,2.8985,2.8984,2.8983,2.8931,2.8931,0,0,0,0,0,0,2.9086,2.9081,2.9049,2.9047,2.9067,2.9048,2.9045,2.9038,2.9019,2.9016,2.903,2.903,2.9001,2.8998,2.8995,2.8974,2.8985,2.8983,2.8982,2.8932,2.8931,2.8931,0,0,0,0,0,0,2.9087,2.9083,2.905,2.9064,2.9059,2.9047,2.9039,2.9037,2.9031,2.9016,2.9013,2.9026,2.9001,2.8998,2.898,2.8973,2.8983,2.8981,2.8932,2.8931,2.8931,2.8932,0,0,0,0,0,0,2.9088,2.9083,2.9078,2.9064,2.9058,2.9036,2.9039,2.9036,2.9028,2.9028,2.9011,2.9009,2.9001,2.8982,2.8978,2.8971,2.898,2.8933,2.8932,2.8931,2.8932,2.8931,2.893,0,0,0,0,0,2.909,2.908,2.9078,2.9074,2.9052,2.9036,2.9033,2.9025,2.9028,2.9022,2.9012,2.9009,2.8974,2.8981,2.8976,2.8968,2.8933,2.8932,2.8931,2.8933,2.8931,2.893,0,0,0,0,0,0,2.9093,2.9078,2.9076,2.9061,2.905,2.9035,2.9027,2.9025,2.9012,2.9012,2.9002,2.8998,2.8981,2.8973,2.898,2.895,2.8954,2.8952,2.8956,2.8955,2.8954,2.8956,2.8979,0,0,0,0,0,2.9092,2.9082,2.9068,2.9056,2.9051,2.904,2.9033,2.9028,2.9015,2.901,2.9,2.8987,2.8972,2.8963,2.8949,2.8931,2.8926,2.8923,2.8922,2.8921,2.8919,2.8906,2.8904,2.8927,2.8927,2.8927,0,0,2.909,2.908,2.9074,2.9057,2.9048,2.9035,2.9036,2.9024,2.9014,2.9008,2.8991,2.8982,2.8967,2.8948,2.8939,2.8941,2.8912,2.892,2.8919,2.8918,2.8905,2.8903,2.8901,2.8926,2.8927,2.8927,0,0,2.908,2.9072,2.9061,2.9052,2.9038,2.903,2.9027,2.9013,2.9007,2.8989,2.8984,2.8972,2.8948,2.8937,2.8928,2.8911,2.8908,2.8907,2.8901,2.8889,2.8887,2.8885,2.8878,2.8875,2.8905,2.8905,2.8905,0,2.9079,2.9062,2.9055,2.9042,2.9034,2.9029,2.9016,2.9007,2.8989,2.8982,2.8984,2.8953,2.8942,2.892,2.8916,2.8909,2.8904,2.8909,2.8888,2.8886,2.8885,2.8877,2.8875,2.8905,2.8905,2.8905,2.8905,0,2.906,2.9048,2.904,2.9024,2.9014,2.9001,2.8991,2.8982,2.8977,2.8969,2.895,2.8937,2.8919,2.8913,2.8909,2.889,2.8891,2.8891,2.8894,2.8883,2.8875,2.8873,2.8905,2.8905,2.8905,2.8905,0,0,2.9053,2.9032,2.9029,2.902,2.9004,2.8993,2.8979,2.8963,2.8954,2.8941,2.8928,2.8907,2.8906,2.8896,2.889,2.8879,2.8864,2.888,2.8879,2.8876,2.884,2.8839,2.8836,2.8862,2.8862,2.8861,2.8841,0,2.904,2.9016,2.9009,2.8988,2.8975,2.8969,2.8957,2.8944,2.8935,2.8922,2.8912,2.8897,2.8898,2.8891,2.888,2.8869,2.8857,2.887,2.8847,2.8847,2.8851,2.8833,2.8833,2.8814,2.8838,2.8837,2.8837,0,2.9022,2.9009,2.8988,2.8971,2.8965,2.8954,2.8938,2.8926,2.891,2.8904,2.8892,2.8886,2.8869,2.8873,2.8848,2.8857,2.8847,2.884,2.8839,2.8836,2.8841,2.8828,2.8808,2.8805,2.8833,2.8833,2.8834,0,2.9017,2.8994,2.8978,2.8971,2.8952,2.8944,2.8935,2.892,2.891,2.8895,2.8888,2.887,2.886,2.8846,2.8835,2.8839,2.8809,2.8813,2.8802,2.8802,2.8796,2.8796,2.8773,2.8791,2.8791,2.8791,2.8792,0,2.9003,2.899,2.8975,2.8965,2.8949,2.8939,2.8923,2.8914,2.89,2.8886,2.888,2.8867,2.8853,2.8837,2.8828,2.8807,2.8803,2.8796,2.8794,2.8796,2.8797,2.8789,2.879,2.8791,2.8791,2.8791,2.8791,0,2.8995,2.8985,2.8967,2.8949,2.8945,2.8933,2.8918,2.8906,2.8897,2.8879,2.8875,2.8859,2.884,2.8827,2.8803,2.8797,2.8773,2.8772,2.8779,2.8778,2.8767,2.8767,2.8737,2.8731,2.8754,2.8754,2.8754,0,2.8987,2.8976,2.8958,2.8949,2.894,2.8925,2.8915,2.8904,2.8893,2.8874,2.8864,2.8845,2.8829,2.8798,2.8784,2.8764,2.8761,2.8752,2.8758,2.876,2.8759,2.8759,2.8757,2.8751,2.875,2.875,2.875,0,2.8972,2.8967,2.8954,2.8937,2.8925,2.8911,2.8898,2.889,2.8876,2.8864,2.8845,2.8832,2.8807,2.8787,2.8766,2.8755,2.8749,2.8748,2.8744,2.8746,2.875,2.8746,2.8775,2.8749,2.8749,2.8749,2.8749,2.8749,2.8963,2.8952,2.8937,2.8921,2.891,2.8896,2.8884,2.8873,2.8858,2.8837,2.8831,2.881,2.8792,2.8763,2.8752,2.8734,2.8735,2.8729,2.8728,2.8727,2.8726,2.8754,2.873,2.873,2.873,2.873,2.873,0,2.8947,2.8937,2.8922,2.8903,2.8889,2.8887,2.887,2.8859,2.8841,2.8826,2.881,2.8786,2.8766,2.875,2.8728,2.8717,2.8714,2.8712,2.8712,2.8709,2.8727,2.8732,2.8715,2.8715,2.8715,2.8715,2.8715,2.8715,2.8937,2.8919,2.8912,2.8887,2.8876,2.8857,2.8847,2.8834,2.8821,2.8796,2.8779,2.8769,2.8752,2.8729,2.8709,2.8705,2.8696,2.8695,2.8689,2.8706,2.8708,2.871,2.8714,2.8693,2.8693,2.8672,2.8672,2.8672]}]]